This demonstration page uses our WeatherBlox Daily Observations layout. Learn more.

Left ArrowRight Arrow

Hourly Observations for November 2, 2016

Temp ( °F °C ) Dew Point ( °F °C ) Humidity (%) Winds ( mph kmh ) Pressure ( in mb ) Visibility ( mi km ) Precip ( " mm )
12:15 am 00:15 Partly Cloudy 49 9.7 35 1.8 58 58 NNE 7 11 29.97 1015 10 16 0.00 0.00
12:35 am 00:35 Partly Cloudy 52 11.3 35 1.8 52 52 NE 9 15 29.97 1015 10 16 0.00 0.00
12:55 am 00:55 Clear 51 10.5 36 2 56 56 NE 7 11 30.00 1016 10 16 0.00 0.00
1:15 am 01:15 Clear 51 10.8 36 2.4 56 56 NE 9 15 29.97 1015 10 16 0.00 0.00
1:35 am 01:35 Clear 52 10.9 37 2.5 56 56 NE 7 11 30.00 1016 10 16 0.00 0.00
1:55 am 01:55 Clear 51 10.6 37 2.7 58 58 NE 7 11 30.00 1016 10 16 0.00 0.00
2:15 am 02:15 Clear 50 10.2 37 2.7 60 60 NNE 7 11 30.00 1016 10 16 0.00 0.00
2:35 am 02:35 Clear 49 9.5 37 2.5 62 62 N 5 7 30.00 1016 10 16 0.00 0.00
2:55 am 02:55 Clear 49 9.2 37 2.5 63 63 NNE 6 9 30.00 1016 10 16 0.00 0.00
3:15 am 03:15 Clear 49 9.4 37 2.6 63 63 NNE 6 9 30.00 1016 10 16 0.00 0.00
3:35 am 03:35 Clear 49 9.5 37 2.7 63 63 NNE 7 11 30.00 1016 10 16 0.00 0.00
3:55 am 03:55 Clear 48 8.9 37 2.6 65 65 N 7 11 30.03 1017 10 16 0.00 0.00
4:15 am 04:15 Clear 48 9 37 2.8 65 65 NNE 5 7 30.03 1017 10 16 0.00 0.00
4:35 am 04:35 Clear 49 9.2 37 2.8 65 65 Calm 30.06 1018 10 16 0.00 0.00
4:55 am 04:55 Clear 48 8.9 37 2.6 65 65 N 3 6 30.06 1018 10 16 0.00 0.00
5:15 am 05:15 Clear 46 8 37 2.7 69 69 NNW 5 7 30.06 1018 10 16 0.00 0.00
5:35 am 05:35 Clear 46 7.8 37 2.7 70 70 NW 6 9 30.06 1018 10 16 0.00 0.00
5:55 am 05:55 Clear 46 7.8 37 2.7 70 70 N 7 11 30.06 1018 10 16 0.00 0.00
6:15 am 06:15 Clear 47 8.4 37 3 69 69 N 3 6 30.06 1018 10 16 0.00 0.00
6:35 am 06:35 Clear 46 7.8 37 2.8 71 71 N 6 9 30.06 1018 10 16 0.00 0.00
6:55 am 06:55 Clear 47 8.5 38 3.1 69 69 N 6 9 30.09 1019 10 16 0.00 0.00
7:15 am 07:15 Partly Cloudy 47 8.6 38 3.1 69 69 N 8 13 30.09 1019 10 16 0.00 0.00
7:35 am 07:35 Mostly Cloudy 49 9.3 38 3.2 66 66 N 5 7 30.09 1019 10 16 0.00 0.00
7:55 am 07:55 Cloudy 49 9.6 38 3.6 66 66 NNW 3 6 30.09 1019 10 16 0.00 0.00
8:15 am 08:15 Cloudy 51 10.5 39 3.7 63 63 NNW 7 11 30.09 1019 10 16 0.00 0.00
8:35 am 08:35 Cloudy 51 10.6 38 3.6 62 62 NNW 6 9 30.12 1020 10 16 0.00 0.00
8:55 am 08:55 Cloudy 52 10.9 39 3.7 61 61 N 7 11 30.12 1020 10 16 0.00 0.00
9:15 am 09:15 Mostly Cloudy 53 11.5 39 3.9 60 60 NNW 7 11 30.12 1020 10 16 0.00 0.00
9:35 am 09:35 Cloudy 53 11.7 39 4 59 59 N 8 13 30.12 1020 10 16 0.00 0.00
9:55 am 09:55 Cloudy 54 12.3 39 4 57 57 N 8 13 30.12 1020 10 16 0.00 0.00
10:15 am 10:15 Mostly Cloudy 55 13 39 3.8 54 54 N 8 13 30.12 1020 10 16 0.00 0.00
10:35 am 10:35 Cloudy 56 13.2 38 3.5 52 52 N 12 19 30.12 1020 10 16 0.00 0.00
10:55 am 10:55 Cloudy 56 13.2 38 3.6 52 52 N 10 17 30.12 1020 10 16 0.00 0.00
11:15 am 11:15 Cloudy 57 14 39 4 51 51 N 12 19 30.12 1020 10 16 0.00 0.00
11:35 am 11:35 Cloudy 58 14.3 39 4 50 50 N 9 15 30.12 1020 10 16 0.00 0.00
11:55 am 11:55 Mostly Cloudy 60 15.6 40 4.5 48 48 N 14 22 30.09 1019 10 16 0.00 0.00
12:15 pm 12:15 Partly Cloudy 63 17.3 41 5.1 45 45 N 14 22 30.06 1018 10 16 0.00 0.00
12:35 pm 12:35 Partly Cloudy 64 17.8 43 6.1 46 46 N 13 20 30.09 1019 10 16 0.00 0.00
12:55 pm 12:55 Mostly Cloudy 65 18.6 42 5.5 42 42 N 10 17 30.06 1018 10 16 0.00 0.00
1:15 pm 13:15 Partly Cloudy 66 19 45 7 46 46 N 7 11 30.06 1018 10 16 0.00 0.00
1:35 pm 13:35 Sunny 67 19.5 45 7.2 45 45 N 15 24 30.06 1018 10 16 0.00 0.00
1:55 pm 13:55 Sunny 67 19.5 47 8.1 48 48 NE 16 26 30.06 1018 10 16 0.00 0.00
2:15 pm 14:15 Sunny 68 20 46 7.6 45 45 NNE 15 24 30.06 1018 10 16 0.00 0.00
2:35 pm 14:35 Sunny 68 20.1 46 7.5 44 44 NNE 15 24 30.06 1018 10 16 0.00 0.00
2:55 pm 14:55 Sunny 69 20.3 45 7 42 42 NE 16 26 30.06 1018 10 16 0.00 0.00
3:15 pm 15:15 Sunny 69 20.4 44 6.9 42 42 NNE 17 28 30.06 1018 10 16 0.00 0.00
3:35 pm 15:35 Sunny 69 20.3 44 6.6 41 41 NNE 12 19 30.06 1018 10 16 0.00 0.00
3:55 pm 15:55 Sunny 69 20.6 43 6.3 40 40 N 12 19 30.09 1019 10 16 0.00 0.00
4:15 pm 16:15 Sunny 69 20.4 42 5.7 38 38 NNE 14 22 30.09 1019 10 16 0.00 0.00
4:35 pm 16:35 Sunny 69 20.5 40 4.5 35 35 NNE 12 19 30.09 1019 10 16 0.00 0.00
4:55 pm 16:55 Sunny 68 20.1 39 4 35 35 NNE 12 19 30.12 1020 10 16 0.00 0.00
5:15 pm 17:15 Mostly Cloudy 68 20.1 38 3.4 33 33 N 13 20 30.12 1020 10 16 0.00 0.00
5:35 pm 17:35 Cloudy 68 20.2 37 2.9 32 32 NNE 9 15 30.12 1020 10 16 0.00 0.00
5:55 pm 17:55 Cloudy 67 19.7 36 2.1 31 31 NNE 8 13 30.12 1020 10 16 0.00 0.00
6:15 pm 18:15 Mostly Cloudy 65 18.3 36 2.1 34 34 NE 5 7 30.15 1021 10 16 0.00 0.00
6:35 pm 18:35 Partly Cloudy 61 16 36 2.2 40 40 NNE 5 7 30.18 1022 10 16 0.00 0.00
6:55 pm 18:55 Clear 57 14 35 1.5 43 43 NNE 6 9 30.21 1023 10 16 0.00 0.00
7:15 pm 19:15 Clear 55 13 34 0.9 44 44 NNE 7 11 30.21 1023 10 16 0.00 0.00
7:35 pm 19:35 Clear 53 11.5 33 0.5 47 47 N 7 11 30.21 1023 10 16 0.00 0.00
7:55 pm 19:55 Clear 52 11.2 33 0.4 48 48 NNE 6 9 30.24 1024 10 16 0.00 0.00
8:15 pm 20:15 Clear 50 10.1 33 0.4 51 51 NE 3 6 30.24 1024 10 16 0.00 0.00
8:35 pm 20:35 Clear 48 9.1 32 0.1 54 54 N 3 6 30.27 1025 10 16 0.00 0.00
8:55 pm 20:55 Clear 49 9.5 33 0.5 54 54 Calm 30.27 1025 10 16 0.00 0.00
9:15 pm 21:15 Clear 46 7.7 32 0 59 59 NW 3 6 30.30 1026 7 11 0.00 0.00
9:35 pm 21:35 Clear 49 9.2 32 0.1 53 53 NNW 3 6 30.27 1025 10 16 0.00 0.00
9:55 pm 21:55 Clear 47 8.4 32 0 56 56 Calm 30.33 1027 10 16 0.00 0.00
10:15 pm 22:15 Clear 45 7.2 32 -0.1 60 60 NNW 3 6 30.33 1027 10 16 0.00 0.00
10:35 pm 22:35 Clear 45 7 32 -0.2 61 61 NW 6 9 30.33 1027 10 16 0.00 0.00
10:55 pm 22:55 Clear 44 6.7 32 -0.1 62 62 WNW 3 6 30.33 1027 10 16 0.00 0.00
11:15 pm 23:15 Clear 45 7.1 32 -0.1 61 61 Calm 30.33 1027 10 16 0.00 0.00
11:35 pm 23:35 Clear 43 6.2 32 0 65 65 WNW 3 6 30.33 1027 10 16 0.00 0.00
11:55 pm 23:55 Clear 43 6 32 -0.1 65 65 WNW 3 6 30.33 1027 10 16 0.00 0.00

Powered by AerisWeather